Location: Caltech
(34.1382°N, 118.1253°W)
Time: 05:37:06
(UTC-08:00)

Cosmos 1408 Rocket - Visible Passes

Search period start: 23 January 2018 00:00
Search period end: 02 February 2018 00:00
Orbit: 600 x 632 km, 82.6° (Epoch: 22 January)

Date Brightness Start Highest point End Pass type
(mag) Time Alt. Az. Time Alt. Az. Time Alt. Az.
23 Jan 3.6 05:29:37 14° NNW 05:33:12 55° W 05:37:31 10° S visible
23 Jan 3.8 17:55:40 10° SSW 17:59:56 73° W 18:04:15 10° N visible
24 Jan 6.1 04:10:03 16° NE 04:11:46 19° ENE 04:14:57 10° ESE visible
24 Jan 4.4 05:47:13 18° NW 05:49:32 28° W 05:53:17 10° SSW visible
24 Jan 5.2 18:12:28 10° SSW 18:16:25 35° W 18:20:23 10° NNW visible
25 Jan 5.0 04:27:43 34° ENE 04:28:21 36° E 04:32:25 10° SSE visible
25 Jan 5.2 06:04:54 14° WNW 06:05:45 15° W 06:08:14 10° WSW visible
25 Jan 6.3 18:29:55 10° WSW 18:32:59 19° WNW 18:36:04 10° NNW visible
26 Jan 3.9 04:45:26 61° SE 04:45:26 61° SE 04:49:14 10° SSE visible
27 Jan 4.7 05:03:09 31° SSW 05:03:09 31° SSW 05:05:34 10° S visible
28 Jan 5.7 05:20:52 13° SSW 05:20:52 13° SSW 05:21:22 10° SSW visible
28 Jan 5.2 17:40:25 10° SSW 17:44:24 37° W 17:48:24 10° NNW visible
29 Jan 6.3 17:57:49 10° WSW 18:00:57 20° WNW 18:04:08 10° NNW visible
30 Jan 6.9 18:17:05 10° W 18:17:37 10° WNW 18:18:10 10° WNW visible
